Location: Spring Mountain Observatory
(40.2501°N, 75.4333°W)
Time: 05:05:08
(UTC-04:00)

ISS - Visible Passes

Search period start: 20 July 2018 00:00
Search period end: 30 July 2018 00:00
Orbit: 402 x 408 km, 51.6° (Epoch: 20 July)

Date Brightness Start Highest point End Pass type
(mag) Time Alt. Az. Time Alt. Az. Time Alt. Az.
20 Jul -0.3 00:52:19 10° NNW 00:53:44 12° N 00:55:09 10° NNE visible
20 Jul -0.5 02:29:23 10° NNW 02:31:19 15° NNE 02:33:15 10° NE visible
20 Jul -2.8 04:05:12 10° NW 04:08:25 49° NNE 04:11:38 10° ESE visible
20 Jul -2.7 22:21:02 10° WSW 22:24:11 45° NNW 22:27:22 10° NE visible
20 Jul -0.5 23:59:28 10° NW 00:01:19 14° NNW 00:03:11 10° NNE visible
21 Jul -0.3 01:37:26 10° NNW 01:38:55 12° N 01:40:23 10° NE visible
21 Jul -1.8 03:13:15 10° NW 03:16:13 30° NNE 03:19:10 10° E visible
21 Jul -3.2 04:49:42 10° WNW 04:52:43 33° SW 04:55:43 10° SSE visible
21 Jul -3.8 21:28:47 10° SW 21:32:03 85° NW 21:35:20 10° NE visible
21 Jul -0.8 23:06:36 10° WNW 23:08:56 18° NNW 23:11:16 10° NNE visible
22 Jul -0.3 00:45:16 10° NNW 00:46:28 11° N 00:47:39 10° NNE visible
22 Jul -1.1 02:21:21 10° NNW 02:23:55 21° NNE 02:26:29 10° ENE visible
22 Jul -4.0 03:57:24 10° WNW 04:00:41 68° SW 04:03:57 10° SE visible
22 Jul -1.3 22:13:51 10° W 22:16:36 24° NNW 22:19:22 10° NNE visible
22 Jul -0.4 23:52:43 10° NNW 23:53:59 12° N 23:55:17 10° NNE visible
23 Jul -0.6 01:29:27 10° NNW 01:30:54 15° N 01:30:54 15° N visible
23 Jul -2.2 21:21:15 10° W 21:24:20 37° NNW 21:27:25 10° NE visible
23 Jul -0.5 22:59:51 10° NW 23:01:32 13° N 23:03:13 10° NNE visible
24 Jul -0.5 00:37:30 10° NNW 00:39:08 13° N 00:39:30 13° NNE visible
24 Jul -0.7 22:06:57 10° WNW 22:09:06 16° NNW 22:11:15 10° NNE visible
24 Jul -0.5 23:45:24 10° NNW 23:46:39 12° N 23:47:54 10° NNE visible
25 Jul -1.1 21:14:05 10° WNW 21:16:42 21° NNW 21:19:19 10° NNE visible
25 Jul -0.6 22:52:57 10° NNW 22:54:09 11° N 22:55:21 10° NNE visible
26 Jul -0.6 00:29:23 10° NNW 00:30:26 14° N 00:30:26 14° N visible
26 Jul -0.7 22:00:08 10° NW 22:01:38 12° N 22:03:08 10° NNE visible
26 Jul -0.8 23:37:25 10° NNW 23:39:13 14° NNE 23:39:46 13° NNE visible
27 Jul -0.8 21:07:10 10° NW 21:09:09 15° NNW 21:11:07 10° NNE visible
27 Jul -0.7 22:45:22 10° NNW 22:46:43 12° N 22:48:04 10° NNE visible
28 Jul -0.5 00:21:11 10° NW 00:21:45 13° NNW 00:21:45 13° NNW visible
28 Jul -0.7 21:53:01 10° NNW 21:54:11 11° N 21:55:20 10° NNE visible
28 Jul -1.1 23:29:13 10° NNW 23:31:10 18° N 23:31:10 18° N visible
29 Jul -0.8 21:00:16 10° NNW 21:01:37 12° N 21:02:59 10° NNE visible
29 Jul -1.1 22:37:14 10° NNW 22:39:12 15° NNE 22:40:36 12° NE visible
